owner,sensor,date,latitude,longitude,air_pressure(mBar),qcFlag 
TABS,ioos:station:wmo:42043:1,2015-02-01T00:00:00Z,28.9818,-94.9186,1015.84,11111222 
TABS,ioos:station:wmo:42043:1,2015-02-01T00:30:00Z,28.9818,-94.9186,1016.01,11111222 
TABS,ioos:station:wmo:42043:1,2015-02-01T01:00:00Z,28.9818,-94.9186,1015.88,11111222 
TABS,ioos:station:wmo:42043:1,2015-02-01T01:30:00Z,28.9818,-94.9186,1016.26,11111222 
TABS,ioos:station:wmo:42043:1,2015-02-01T02:00:00Z,28.9818,-94.9186,1016.62,11111222 
TABS,ioos:station:wmo:42043:1,2015-02-01T02:30:00Z,28.9818,-94.9186,1016.82,11111222 
TABS,ioos:station:wmo:42043:1,2015-02-01T03:00:00Z,28.9818,-94.9186,1016.69,11111222 
TABS,ioos:station:wmo:42043:1,2015-02-01T03:30:00Z,28.9818,-94.9186,1016.74,11111222 
TABS,ioos:station:wmo:42043:1,2015-02-01T04:00:00Z,28.9818,-94.9186,1016.45,11111222 
TABS,ioos:station:wmo:42043:1,2015-02-01T04:30:00Z,28.9818,-94.9186,1016.27,11111222 
TABS,ioos:station:wmo:42043:1,2015-02-01T05:00:00Z,28.9818,-94.9186,1015.64,11111222 
TABS,ioos:station:wmo:42043:1,2015-02-01T05:30:00Z,28.9818,-94.9186,1015.14,11111222 
TABS,ioos:station:wmo:42043:1,2015-02-01T06:00:00Z,28.9818,-94.9186,1014.5,11111222 
TABS,ioos:station:wmo:42043:1,2015-02-01T06:30:00Z,28.9818,-94.9186,1013.59,11111222 
TABS,ioos:station:wmo:42043:1,2015-02-01T07:00:00Z,28.9818,-94.9186,1013.39,11111222 
TABS,ioos:station:wmo:42043:1,2015-02-01T07:30:00Z,28.9818,-94.9186,1012.95,11111222 
TABS,ioos:station:wmo:42043:1,2015-02-01T08:00:00Z,28.9818,-94.9186,1013.78,11111222 
TABS,ioos:station:wmo:42043:1,2015-02-01T08:30:00Z,28.9818,-94.9186,1013.38,11111222 
TABS,ioos:station:wmo:42043:1,2015-02-01T09:00:00Z,28.9818,-94.9186,1013.45,11111222 
TABS,ioos:station:wmo:42043:1,2015-02-01T09:30:00Z,28.9818,-94.9186,1013.6,11111222 
TABS,ioos:station:wmo:42043:1,2015-02-01T10:00:00Z,28.9818,-94.9186,1013.53,11111222 
TABS,ioos:station:wmo:42043:1,2015-02-01T10:30:00Z,28.9818,-94.9186,1013.55,11111222 
TABS,ioos:station:wmo:42043:1,2015-02-01T11:00:00Z,28.9818,-94.9186,1013.4,11111222 
TABS,ioos:station:wmo:42043:1,2015-02-01T11:30:00Z,28.9818,-94.9186,1013.62,11111222 
TABS,ioos:station:wmo:42043:1,2015-02-01T12:00:00Z,28.9818,-94.9186,1013.88,11111222 
TABS,ioos:station:wmo:42043:1,2015-02-01T12:30:00Z,28.9818,-94.9186,1014.1,11111222 
TABS,ioos:station:wmo:42043:1,2015-02-01T13:00:00Z,28.9818,-94.9186,1014.16,11111222 
TABS,ioos:station:wmo:42043:1,2015-02-01T13:30:00Z,28.9818,-94.9186,1014.4,11111222 
TABS,ioos:station:wmo:42043:1,2015-02-01T14:00:00Z,28.9818,-94.9186,1014.37,11111222 
TABS,ioos:station:wmo:42043:1,2015-02-01T14:30:00Z,28.9818,-94.9186,1014.69,11111222 
TABS,ioos:station:wmo:42043:1,2015-02-01T15:00:00Z,28.9818,-94.9186,1014.72,11111222 
TABS,ioos:station:wmo:42043:1,2015-02-01T15:30:00Z,28.9818,-94.9186,1014.99,11111222 
TABS,ioos:station:wmo:42043:1,2015-02-01T16:00:00Z,28.9818,-94.9186,1015.22,11111222 
TABS,ioos:station:wmo:42043:1,2015-02-01T16:30:00Z,28.9818,-94.9186,1015.07,11111222 
TABS,ioos:station:wmo:42043:1,2015-02-01T17:00:00Z,28.9818,-94.9186,1015.11,11111222 
TABS,ioos:station:wmo:42043:1,2015-02-01T17:30:00Z,28.9818,-94.9186,1014.39,11111222 
TABS,ioos:station:wmo:42043:1,2015-02-01T18:00:00Z,28.9818,-94.9186,1013.96,11111222 
TABS,ioos:station:wmo:42043:1,2015-02-01T18:30:00Z,28.9818,-94.9186,1013.61,11111222 
TABS,ioos:station:wmo:42043:1,2015-02-01T19:00:00Z,28.9818,-94.9186,1013.11,11111222 
TABS,ioos:station:wmo:42043:1,2015-02-01T19:30:00Z,28.9818,-94.9186,1012.56,11111222 
TABS,ioos:station:wmo:42043:1,2015-02-01T20:00:00Z,28.9818,-94.9186,1012.47,11111222 
TABS,ioos:station:wmo:42043:1,2015-02-01T20:30:00Z,28.9818,-94.9186,1012.43,11111222 
TABS,ioos:station:wmo:42043:1,2015-02-01T21:00:00Z,28.9818,-94.9186,1012.11,11111222 
TABS,ioos:station:wmo:42043:1,2015-02-01T21:30:00Z,28.9818,-94.9186,1012.16,11111222 
TABS,ioos:station:wmo:42043:1,2015-02-01T22:00:00Z,28.9818,-94.9186,1012.42,11111222 
TABS,ioos:station:wmo:42043:1,2015-02-01T22:30:00Z,28.9818,-94.9186,1013.08,11111222 
TABS,ioos:station:wmo:42043:1,2015-02-01T23:00:00Z,28.9818,-94.9186,1013.35,11111222 
TABS,ioos:station:wmo:42043:1,2015-02-01T23:30:00Z,28.9818,-94.9186,1013.2,11111222 
TABS,ioos:station:wmo:42043:1,2015-02-02T00:00:00Z,28.9818,-94.9186,1013.14,11111222 
TABS,ioos:station:wmo:42043:1,2015-02-02T00:30:00Z,28.9818,-94.9186,1013.66,11111222 
TABS,ioos:station:wmo:42043:1,2015-02-02T01:00:00Z,28.9818,-94.9186,1013.94,11111222 
TABS,ioos:station:wmo:42043:1,2015-02-02T01:30:00Z,28.9818,-94.9186,1014.91,11111222 
TABS,ioos:station:wmo:42043:1,2015-02-02T02:00:00Z,28.9818,-94.9186,1015.54,11111222 
TABS,ioos:station:wmo:42043:1,2015-02-02T02:30:00Z,28.9818,-94.9186,1016.19,11111222 
TABS,ioos:station:wmo:42043:1,2015-02-02T03:00:00Z,28.9818,-94.9186,1016.73,11111222 
TABS,ioos:station:wmo:42043:1,2015-02-02T03:30:00Z,28.9818,-94.9186,1017.51,11111222 
TABS,ioos:station:wmo:42043:1,2015-02-02T04:00:00Z,28.9818,-94.9186,1017.9,11111222 
TABS,ioos:station:wmo:42043:1,2015-02-02T04:30:00Z,28.9818,-94.9186,1018.91,11111222 
TABS,ioos:station:wmo:42043:1,2015-02-02T05:00:00Z,28.9818,-94.9186,1019.37,11111222 
TABS,ioos:station:wmo:42043:1,2015-02-02T05:30:00Z,28.9818,-94.9186,1019.59,11111222 
TABS,ioos:station:wmo:42043:1,2015-02-02T06:00:00Z,28.9818,-94.9186,1019.87,11111222 
TABS,ioos:station:wmo:42043:1,2015-02-02T06:30:00Z,28.9818,-94.9186,1020.17,11111222 
TABS,ioos:station:wmo:42043:1,2015-02-02T07:00:00Z,28.9818,-94.9186,1020.5,11111222 
TABS,ioos:station:wmo:42043:1,2015-02-02T07:30:00Z,28.9818,-94.9186,1021.34,11111222 
TABS,ioos:station:wmo:42043:1,2015-02-02T08:00:00Z,28.9818,-94.9186,1021.58,11111222 
TABS,ioos:station:wmo:42043:1,2015-02-02T08:30:00Z,28.9818,-94.9186,1021.88,11111222 
TABS,ioos:station:wmo:42043:1,2015-02-02T09:00:00Z,28.9818,-94.9186,1021.92,11111222 
TABS,ioos:station:wmo:42043:1,2015-02-02T09:30:00Z,28.9818,-94.9186,1022.4,11111222 
TABS,ioos:station:wmo:42043:1,2015-02-02T10:00:00Z,28.9818,-94.9186,1022.78,11111222 
TABS,ioos:station:wmo:42043:1,2015-02-02T10:30:00Z,28.9818,-94.9186,1023.16,11111222 
TABS,ioos:station:wmo:42043:1,2015-02-02T11:00:00Z,28.9818,-94.9186,1023.1,11111222 
TABS,ioos:station:wmo:42043:1,2015-02-02T11:30:00Z,28.9818,-94.9186,1023.27,11111222 
TABS,ioos:station:wmo:42043:1,2015-02-02T12:00:00Z,28.9818,-94.9186,1024.12,11111222 
TABS,ioos:station:wmo:42043:1,2015-02-02T12:30:00Z,28.9818,-94.9186,1024.71,11111222 
TABS,ioos:station:wmo:42043:1,2015-02-02T13:00:00Z,28.9818,-94.9186,1025.45,11111222 
TABS,ioos:station:wmo:42043:1,2015-02-02T13:30:00Z,28.9818,-94.9186,1025.9,11111222 
TABS,ioos:station:wmo:42043:1,2015-02-02T14:00:00Z,28.9818,-94.9186,1026.12,11111222 
TABS,ioos:station:wmo:42043:1,2015-02-02T14:30:00Z,28.9818,-94.9186,1026.73,11111222 
TABS,ioos:station:wmo:42043:1,2015-02-02T15:00:00Z,28.9818,-94.9186,1026.86,11111222 
TABS,ioos:station:wmo:42043:1,2015-02-02T15:30:00Z,28.9818,-94.9186,1026.86,11111222 
TABS,ioos:station:wmo:42043:1,2015-02-02T16:00:00Z,28.9818,-94.9186,1027.18,11111222 
TABS,ioos:station:wmo:42043:1,2015-02-02T16:30:00Z,28.9818,-94.9186,1027.23,11111222 
TABS,ioos:station:wmo:42043:1,2015-02-02T17:00:00Z,28.9818,-94.9186,1026.83,11111222 
TABS,ioos:station:wmo:42043:1,2015-02-02T17:30:00Z,28.9818,-94.9186,1026.51,11111222 
TABS,ioos:station:wmo:42043:1,2015-02-02T18:00:00Z,28.9818,-94.9186,1026.36,11111222 
TABS,ioos:station:wmo:42043:1,2015-02-02T18:30:00Z,28.9818,-94.9186,1025.81,11111222 
TABS,ioos:station:wmo:42043:1,2015-02-02T19:00:00Z,28.9818,-94.9186,1025.24,11111222 
TABS,ioos:station:wmo:42043:1,2015-02-02T19:30:00Z,28.9818,-94.9186,1025.24,11111222 
TABS,ioos:station:wmo:42043:1,2015-02-02T20:00:00Z,28.9818,-94.9186,1025.14,11111222 
TABS,ioos:station:wmo:42043:1,2015-02-02T20:30:00Z,28.9818,-94.9186,1025.12,11111222 
TABS,ioos:station:wmo:42043:1,2015-02-02T21:00:00Z,28.9818,-94.9186,1024.32,11111222 
TABS,ioos:station:wmo:42043:1,2015-02-02T21:30:00Z,28.9818,-94.9186,1024.52,11111222 
TABS,ioos:station:wmo:42043:1,2015-02-02T22:00:00Z,28.9818,-94.9186,1024.61,11111222 
TABS,ioos:station:wmo:42043:1,2015-02-02T22:30:00Z,28.9818,-94.9186,1024.98,11111222 
TABS,ioos:station:wmo:42043:1,2015-02-02T23:00:00Z,28.9818,-94.9186,1025.29,11111222 
TABS,ioos:station:wmo:42043:1,2015-02-02T23:30:00Z,28.9818,-94.9186,1025.78,11111222 
TABS,ioos:station:wmo:42043:1,2015-02-03T00:00:00Z,28.9818,-94.9186,1025.44,11111222 
TABS,ioos:station:wmo:42043:1,2015-02-03T00:30:00Z,28.9818,-94.9186,1025.62,11111222 
TABS,ioos:station:wmo:42043:1,2015-02-03T01:00:00Z,28.9818,-94.9186,1026.33,11111222 
TABS,ioos:station:wmo:42043:1,2015-02-03T01:30:00Z,28.9818,-94.9186,1026.24,11111222 
TABS,ioos:station:wmo:42043:1,2015-02-03T02:00:00Z,28.9818,-94.9186,1026.44,11111222 
TABS,ioos:station:wmo:42043:1,2015-02-03T02:30:00Z,28.9818,-94.9186,1026.63,11111222 
TABS,ioos:station:wmo:42043:1,2015-02-03T03:00:00Z,28.9818,-94.9186,1026.29,11111222 
TABS,ioos:station:wmo:42043:1,2015-02-03T03:30:00Z,28.9818,-94.9186,1026.59,11111222 
TABS,ioos:station:wmo:42043:1,2015-02-03T04:00:00Z,28.9818,-94.9186,1026.68,11111222 
TABS,ioos:station:wmo:42043:1,2015-02-03T04:30:00Z,28.9818,-94.9186,1026.41,11111222 
TABS,ioos:station:wmo:42043:1,2015-02-03T05:00:00Z,28.9818,-94.9186,1025.96,11111222 
TABS,ioos:station:wmo:42043:1,2015-02-03T05:30:00Z,28.9818,-94.9186,1025.97,11111222 
TABS,ioos:station:wmo:42043:1,2015-02-03T06:00:00Z,28.9818,-94.9186,1025.57,11111222 
TABS,ioos:station:wmo:42043:1,2015-02-03T06:30:00Z,28.9818,-94.9186,1025.43,11111222 
TABS,ioos:station:wmo:42043:1,2015-02-03T07:00:00Z,28.9818,-94.9186,1025.64,11111222 
TABS,ioos:station:wmo:42043:1,2015-02-03T07:30:00Z,28.9818,-94.9186,1025.79,11111222 
TABS,ioos:station:wmo:42043:1,2015-02-03T08:00:00Z,28.9818,-94.9186,1025.38,11111222 
TABS,ioos:station:wmo:42043:1,2015-02-03T08:30:00Z,28.9818,-94.9186,1025.32,11111222 
TABS,ioos:station:wmo:42043:1,2015-02-03T09:00:00Z,28.9818,-94.9186,1025.26,11111222 
TABS,ioos:station:wmo:42043:1,2015-02-03T09:30:00Z,28.9818,-94.9186,1025.46,11111222 
TABS,ioos:station:wmo:42043:1,2015-02-03T10:00:00Z,28.9818,-94.9186,1025.57,11111222 
TABS,ioos:station:wmo:42043:1,2015-02-03T10:30:00Z,28.9818,-94.9186,1025.63,11111222 
TABS,ioos:station:wmo:42043:1,2015-02-03T11:00:00Z,28.9818,-94.9186,1025.4,11111222 
TABS,ioos:station:wmo:42043:1,2015-02-03T11:30:00Z,28.9818,-94.9186,1025.79,11111222 
TABS,ioos:station:wmo:42043:1,2015-02-03T12:00:00Z,28.9818,-94.9186,1025.52,11111222 
TABS,ioos:station:wmo:42043:1,2015-02-03T12:30:00Z,28.9818,-94.9186,1025.76,11111222 
TABS,ioos:station:wmo:42043:1,2015-02-03T13:00:00Z,28.9818,-94.9186,1025.62,11111222 
TABS,ioos:station:wmo:42043:1,2015-02-03T13:30:00Z,28.9818,-94.9186,1025.19,11111222 
TABS,ioos:station:wmo:42043:1,2015-02-03T14:00:00Z,28.9818,-94.9186,1025.53,11111222 
TABS,ioos:station:wmo:42043:1,2015-02-03T14:30:00Z,28.9818,-94.9186,1025.25,11111222 
TABS,ioos:station:wmo:42043:1,2015-02-03T15:00:00Z,28.9818,-94.9186,1026.44,11111222 
TABS,ioos:station:wmo:42043:1,2015-02-03T15:30:00Z,28.9818,-94.9186,1026.19,11111222 
TABS,ioos:station:wmo:42043:1,2015-02-03T16:00:00Z,28.9818,-94.9186,1026.63,11111222 
TABS,ioos:station:wmo:42043:1,2015-02-03T16:30:00Z,28.9818,-94.9186,1026.7,11111222 
TABS,ioos:station:wmo:42043:1,2015-02-03T17:00:00Z,28.9818,-94.9186,1026.71,11111222 
TABS,ioos:station:wmo:42043:1,2015-02-03T17:30:00Z,28.9818,-94.9186,1026.16,11111222 
TABS,ioos:station:wmo:42043:1,2015-02-03T18:00:00Z,28.9818,-94.9186,1025.76,11111222 
TABS,ioos:station:wmo:42043:1,2015-02-03T18:30:00Z,28.9818,-94.9186,1025.09,11111222 
TABS,ioos:station:wmo:42043:1,2015-02-03T19:00:00Z,28.9818,-94.9186,1024.62,11111222 
TABS,ioos:station:wmo:42043:1,2015-02-03T19:30:00Z,28.9818,-94.9186,1024.81,11111222 
TABS,ioos:station:wmo:42043:1,2015-02-03T20:00:00Z,28.9818,-94.9186,1024.69,11111222 
TABS,ioos:station:wmo:42043:1,2015-02-03T20:30:00Z,28.9818,-94.9186,1024.64,11111222 
TABS,ioos:station:wmo:42043:1,2015-02-03T21:00:00Z,28.9818,-94.9186,1024.43,11111222 
TABS,ioos:station:wmo:42043:1,2015-02-03T21:30:00Z,28.9818,-94.9186,1024.73,11111222 
TABS,ioos:station:wmo:42043:1,2015-02-03T22:00:00Z,28.9818,-94.9186,1024.26,11111222 
TABS,ioos:station:wmo:42043:1,2015-02-03T22:30:00Z,28.9818,-94.9186,1024.83,11111222 
TABS,ioos:station:wmo:42043:1,2015-02-03T23:00:00Z,28.9818,-94.9186,1023.56,11111222 
TABS,ioos:station:wmo:42043:1,2015-02-03T23:30:00Z,28.9818,-94.9186,1023.45,11111222 
TABS,ioos:station:wmo:42043:1,2015-02-04T00:00:00Z,28.9818,-94.9186,1023.47,11111222 
TABS,ioos:station:wmo:42043:1,2015-02-04T00:30:00Z,28.9818,-94.9186,1023.25,11111222 
TABS,ioos:station:wmo:42043:1,2015-02-04T01:00:00Z,28.9818,-94.9186,1023.12,11111222 
TABS,ioos:station:wmo:42043:1,2015-02-04T01:30:00Z,28.9818,-94.9186,1023.36,11111222 
TABS,ioos:station:wmo:42043:1,2015-02-04T02:00:00Z,28.9818,-94.9186,1023.72,11111222 
TABS,ioos:station:wmo:42043:1,2015-02-04T02:30:00Z,28.9818,-94.9186,1023.21,11111222 
TABS,ioos:station:wmo:42043:1,2015-02-04T03:00:00Z,28.9818,-94.9186,1023.54,11111222 
TABS,ioos:station:wmo:42043:1,2015-02-04T03:30:00Z,28.9818,-94.9186,1023.37,11111222 
TABS,ioos:station:wmo:42043:1,2015-02-04T04:00:00Z,28.9818,-94.9186,1023.3,11111222 
TABS,ioos:station:wmo:42043:1,2015-02-04T04:30:00Z,28.9818,-94.9186,1023.2,11111222 
TABS,ioos:station:wmo:42043:1,2015-02-04T05:00:00Z,28.9818,-94.9186,1022.55,11111222 
TABS,ioos:station:wmo:42043:1,2015-02-04T05:30:00Z,28.9818,-94.9186,1022.05,11111222 
TABS,ioos:station:wmo:42043:1,2015-02-04T06:00:00Z,28.9818,-94.9186,1021.06,11111222 
TABS,ioos:station:wmo:42043:1,2015-02-04T06:30:00Z,28.9818,-94.9186,1021.29,11111222 
TABS,ioos:station:wmo:42043:1,2015-02-04T07:00:00Z,28.9818,-94.9186,1021.52,11111222 
TABS,ioos:station:wmo:42043:1,2015-02-04T07:30:00Z,28.9818,-94.9186,1021.27,11111222 
TABS,ioos:station:wmo:42043:1,2015-02-04T08:00:00Z,28.9818,-94.9186,1020.74,11111222 
TABS,ioos:station:wmo:42043:1,2015-02-04T08:30:00Z,28.9818,-94.9186,1019.79,11111222 
TABS,ioos:station:wmo:42043:1,2015-02-04T09:00:00Z,28.9818,-94.9186,1019.65,11111222 
TABS,ioos:station:wmo:42043:1,2015-02-04T09:30:00Z,28.9818,-94.9186,1019.54,11111222 
TABS,ioos:station:wmo:42043:1,2015-02-04T10:00:00Z,28.9818,-94.9186,1019.18,11111222 
TABS,ioos:station:wmo:42043:1,2015-02-04T10:30:00Z,28.9818,-94.9186,1018.59,11111222 
TABS,ioos:station:wmo:42043:1,2015-02-04T11:00:00Z,28.9818,-94.9186,1018.47,11111222 
TABS,ioos:station:wmo:42043:1,2015-02-04T11:30:00Z,28.9818,-94.9186,1018.43,11111222 
TABS,ioos:station:wmo:42043:1,2015-02-04T12:00:00Z,28.9818,-94.9186,1017.87,11111222 
TABS,ioos:station:wmo:42043:1,2015-02-04T12:30:00Z,28.9818,-94.9186,1019.4,11111222 
TABS,ioos:station:wmo:42043:1,2015-02-04T13:00:00Z,28.9818,-94.9186,1018.32,11111222 
TABS,ioos:station:wmo:42043:1,2015-02-04T13:30:00Z,28.9818,-94.9186,1018.05,11111222 
TABS,ioos:station:wmo:42043:1,2015-02-04T14:00:00Z,28.9818,-94.9186,1019.44,11111222 
TABS,ioos:station:wmo:42043:1,2015-02-04T14:30:00Z,28.9818,-94.9186,1019.44,11111222 
TABS,ioos:station:wmo:42043:1,2015-02-04T15:00:00Z,28.9818,-94.9186,1019.68,11111222 
TABS,ioos:station:wmo:42043:1,2015-02-04T15:30:00Z,28.9818,-94.9186,1019.71,11111222 
TABS,ioos:station:wmo:42043:1,2015-02-04T16:00:00Z,28.9818,-94.9186,1019.64,11111222 
TABS,ioos:station:wmo:42043:1,2015-02-04T16:30:00Z,28.9818,-94.9186,1019.39,11111222 
TABS,ioos:station:wmo:42043:1,2015-02-04T17:00:00Z,28.9818,-94.9186,1019.22,11111222 
TABS,ioos:station:wmo:42043:1,2015-02-04T17:30:00Z,28.9818,-94.9186,1018.54,11111222 
TABS,ioos:station:wmo:42043:1,2015-02-04T18:00:00Z,28.9818,-94.9186,1018.76,11111222 
TABS,ioos:station:wmo:42043:1,2015-02-04T18:30:00Z,28.9818,-94.9186,1018.23,11111222 
TABS,ioos:station:wmo:42043:1,2015-02-04T19:00:00Z,28.9818,-94.9186,1017.17,11111222 
TABS,ioos:station:wmo:42043:1,2015-02-04T19:30:00Z,28.9818,-94.9186,1017.1,11111222 
TABS,ioos:station:wmo:42043:1,2015-02-04T20:00:00Z,28.9818,-94.9186,1017.08,11111222 
TABS,ioos:station:wmo:42043:1,2015-02-04T20:30:00Z,28.9818,-94.9186,1017.22,11111222 
TABS,ioos:station:wmo:42043:1,2015-02-04T21:00:00Z,28.9818,-94.9186,1017.66,11111222 
TABS,ioos:station:wmo:42043:1,2015-02-04T21:30:00Z,28.9818,-94.9186,1017.64,11111222 
TABS,ioos:station:wmo:42043:1,2015-02-04T22:00:00Z,28.9818,-94.9186,1017.74,11111222 
TABS,ioos:station:wmo:42043:1,2015-02-04T22:30:00Z,28.9818,-94.9186,1017.9,11111222 
TABS,ioos:station:wmo:42043:1,2015-02-04T23:00:00Z,28.9818,-94.9186,1017.88,11111222 
TABS,ioos:station:wmo:42043:1,2015-02-04T23:30:00Z,28.9818,-94.9186,1018.3,11111222 
TABS,ioos:station:wmo:42043:1,2015-02-05T00:00:00Z,28.9818,-94.9186,1018.46,11111222 
TABS,ioos:station:wmo:42043:1,2015-02-05T00:30:00Z,28.9818,-94.9186,1018.73,11111222 
TABS,ioos:station:wmo:42043:1,2015-02-05T01:00:00Z,28.9818,-94.9186,1018.65,11111222 
TABS,ioos:station:wmo:42043:1,2015-02-05T01:30:00Z,28.9818,-94.9186,1018.74,11111222 
TABS,ioos:station:wmo:42043:1,2015-02-05T02:00:00Z,28.9818,-94.9186,1018.92,11111222 
TABS,ioos:station:wmo:42043:1,2015-02-05T02:30:00Z,28.9818,-94.9186,1019.33,11111222 
TABS,ioos:station:wmo:42043:1,2015-02-05T03:00:00Z,28.9818,-94.9186,1019.65,11111222 
TABS,ioos:station:wmo:42043:1,2015-02-05T03:30:00Z,28.9818,-94.9186,1020.06,11111222 
TABS,ioos:station:wmo:42043:1,2015-02-05T04:00:00Z,28.9818,-94.9186,1020.64,11111222 
TABS,ioos:station:wmo:42043:1,2015-02-05T04:30:00Z,28.9818,-94.9186,1020.79,11111222 
TABS,ioos:station:wmo:42043:1,2015-02-05T05:00:00Z,28.9818,-94.9186,1020.9,11111222 
TABS,ioos:station:wmo:42043:1,2015-02-05T05:30:00Z,28.9818,-94.9186,1020.98,11111222 
TABS,ioos:station:wmo:42043:1,2015-02-05T06:00:00Z,28.9818,-94.9186,1021.12,11111222 
TABS,ioos:station:wmo:42043:1,2015-02-05T06:30:00Z,28.9818,-94.9186,1021.21,11111222 
TABS,ioos:station:wmo:42043:1,2015-02-05T07:00:00Z,28.9818,-94.9186,1021.29,11111222 
TABS,ioos:station:wmo:42043:1,2015-02-05T07:30:00Z,28.9818,-94.9186,1021.5,11111222 
TABS,ioos:station:wmo:42043:1,2015-02-05T08:00:00Z,28.9818,-94.9186,1021.63,11111222 
TABS,ioos:station:wmo:42043:1,2015-02-05T08:30:00Z,28.9818,-94.9186,1021.66,11111222 
TABS,ioos:station:wmo:42043:1,2015-02-05T09:00:00Z,28.9818,-94.9186,1021.57,11111222 
TABS,ioos:station:wmo:42043:1,2015-02-05T09:30:00Z,28.9818,-94.9186,1021.96,11111222 
TABS,ioos:station:wmo:42043:1,2015-02-05T10:00:00Z,28.9818,-94.9186,1022.05,11111222 
TABS,ioos:station:wmo:42043:1,2015-02-05T10:30:00Z,28.9818,-94.9186,1022.32,11111222 
TABS,ioos:station:wmo:42043:1,2015-02-05T11:00:00Z,28.9818,-94.9186,1022.66,11111222 
TABS,ioos:station:wmo:42043:1,2015-02-05T11:30:00Z,28.9818,-94.9186,1022.81,11111222 
TABS,ioos:station:wmo:42043:1,2015-02-05T12:00:00Z,28.9818,-94.9186,1023.23,11111222 
TABS,ioos:station:wmo:42043:1,2015-02-05T12:30:00Z,28.9818,-94.9186,1023.69,11111222 
TABS,ioos:station:wmo:42043:1,2015-02-05T13:00:00Z,28.9818,-94.9186,1024.05,11111222 
TABS,ioos:station:wmo:42043:1,2015-02-05T13:30:00Z,28.9818,-94.9186,1024.36,11111222 
TABS,ioos:station:wmo:42043:1,2015-02-05T14:00:00Z,28.9818,-94.9186,1024.83,11111222 
TABS,ioos:station:wmo:42043:1,2015-02-05T14:30:00Z,28.9818,-94.9186,1025.59,11111222 
TABS,ioos:station:wmo:42043:1,2015-02-05T15:00:00Z,28.9818,-94.9186,1026.08,11111222 
TABS,ioos:station:wmo:42043:1,2015-02-05T15:30:00Z,28.9818,-94.9186,1026.83,11111222 
TABS,ioos:station:wmo:42043:1,2015-02-05T16:00:00Z,28.9818,-94.9186,1027.12,11111222 
TABS,ioos:station:wmo:42043:1,2015-02-05T16:30:00Z,28.9818,-94.9186,1027.22,11111222 
TABS,ioos:station:wmo:42043:1,2015-02-05T17:00:00Z,28.9818,-94.9186,1027.38,11111222 
TABS,ioos:station:wmo:42043:1,2015-02-05T17:30:00Z,28.9818,-94.9186,1027.34,11111222 
TABS,ioos:station:wmo:42043:1,2015-02-05T18:00:00Z,28.9818,-94.9186,1027.16,11111222 
TABS,ioos:station:wmo:42043:1,2015-02-05T18:30:00Z,28.9818,-94.9186,1026.82,11111222 
TABS,ioos:station:wmo:42043:1,2015-02-05T19:00:00Z,28.9818,-94.9186,1026.25,11111222 
TABS,ioos:station:wmo:42043:1,2015-02-05T19:30:00Z,28.9818,-94.9186,1026.5,11111222 
TABS,ioos:station:wmo:42043:1,2015-02-05T20:00:00Z,28.9818,-94.9186,1026.6,11111222 
TABS,ioos:station:wmo:42043:1,2015-02-05T20:30:00Z,28.9818,-94.9186,1026.35,11111222 
TABS,ioos:station:wmo:42043:1,2015-02-05T21:00:00Z,28.9818,-94.9186,1026.18,11111222 
TABS,ioos:station:wmo:42043:1,2015-02-05T21:30:00Z,28.9818,-94.9186,1025.99,11111222 
TABS,ioos:station:wmo:42043:1,2015-02-05T22:00:00Z,28.9818,-94.9186,1026.2,11111222 
TABS,ioos:station:wmo:42043:1,2015-02-05T22:30:00Z,28.9818,-94.9186,1026.16,11111222 
TABS,ioos:station:wmo:42043:1,2015-02-05T23:00:00Z,28.9818,-94.9186,1026.37,11111222 
TABS,ioos:station:wmo:42043:1,2015-02-05T23:30:00Z,28.9818,-94.9186,1026.46,11111222 
TABS,ioos:station:wmo:42043:1,2015-02-06T00:00:00Z,28.9818,-94.9186,1026.7,11111222 
TABS,ioos:station:wmo:42043:1,2015-02-06T00:30:00Z,28.9818,-94.9186,1027.04,11111222 
TABS,ioos:station:wmo:42043:1,2015-02-06T01:00:00Z,28.9818,-94.9186,1027.69,11111222 
TABS,ioos:station:wmo:42043:1,2015-02-06T01:30:00Z,28.9818,-94.9186,1027.94,11111222 
TABS,ioos:station:wmo:42043:1,2015-02-06T02:00:00Z,28.9818,-94.9186,1028.07,11111222 
TABS,ioos:station:wmo:42043:1,2015-02-06T02:30:00Z,28.9818,-94.9186,1028.5,11111222 
TABS,ioos:station:wmo:42043:1,2015-02-06T03:00:00Z,28.9818,-94.9186,1028.75,11111222 
TABS,ioos:station:wmo:42043:1,2015-02-06T03:30:00Z,28.9818,-94.9186,1029.04,11111222 
TABS,ioos:station:wmo:42043:1,2015-02-06T04:00:00Z,28.9818,-94.9186,1029.13,11111222 
TABS,ioos:station:wmo:42043:1,2015-02-06T04:30:00Z,28.9818,-94.9186,1028.94,11111222 
TABS,ioos:station:wmo:42043:1,2015-02-06T05:00:00Z,28.9818,-94.9186,1029.01,11111222 
TABS,ioos:station:wmo:42043:1,2015-02-06T05:30:00Z,28.9818,-94.9186,1028.92,11111222 
TABS,ioos:station:wmo:42043:1,2015-02-06T06:00:00Z,28.9818,-94.9186,1028.99,11111222 
TABS,ioos:station:wmo:42043:1,2015-02-06T06:30:00Z,28.9818,-94.9186,1029.03,11111222 
TABS,ioos:station:wmo:42043:1,2015-02-06T07:00:00Z,28.9818,-94.9186,1029.31,11111222 
TABS,ioos:station:wmo:42043:1,2015-02-06T07:30:00Z,28.9818,-94.9186,1029.2,11111222 
TABS,ioos:station:wmo:42043:1,2015-02-06T08:00:00Z,28.9818,-94.9186,1028.91,11111222 
TABS,ioos:station:wmo:42043:1,2015-02-06T08:30:00Z,28.9818,-94.9186,1029.02,11111222 
TABS,ioos:station:wmo:42043:1,2015-02-06T09:00:00Z,28.9818,-94.9186,1028.96,11111222 
TABS,ioos:station:wmo:42043:1,2015-02-06T09:30:00Z,28.9818,-94.9186,1028.8,11111222 
TABS,ioos:station:wmo:42043:1,2015-02-06T10:00:00Z,28.9818,-94.9186,1028.8,11111222 
TABS,ioos:station:wmo:42043:1,2015-02-06T10:30:00Z,28.9818,-94.9186,1028.72,11111222 
TABS,ioos:station:wmo:42043:1,2015-02-06T11:00:00Z,28.9818,-94.9186,1028.93,11111222 
TABS,ioos:station:wmo:42043:1,2015-02-06T11:30:00Z,28.9818,-94.9186,1029.16,11111222 
TABS,ioos:station:wmo:42043:1,2015-02-06T12:00:00Z,28.9818,-94.9186,1029.35,11111222 
TABS,ioos:station:wmo:42043:1,2015-02-06T12:30:00Z,28.9818,-94.9186,1029.36,11111222 
TABS,ioos:station:wmo:42043:1,2015-02-06T13:00:00Z,28.9818,-94.9186,1029.44,11111222 
TABS,ioos:station:wmo:42043:1,2015-02-06T13:30:00Z,28.9818,-94.9186,1029.55,11111222 
TABS,ioos:station:wmo:42043:1,2015-02-06T14:00:00Z,28.9818,-94.9186,1029.72,11111222 
TABS,ioos:station:wmo:42043:1,2015-02-06T14:30:00Z,28.9818,-94.9186,1030.17,11111222 
TABS,ioos:station:wmo:42043:1,2015-02-06T15:00:00Z,28.9818,-94.9186,1030.33,11111222 
TABS,ioos:station:wmo:42043:1,2015-02-06T15:30:00Z,28.9818,-94.9186,1030.4,11111222 
TABS,ioos:station:wmo:42043:1,2015-02-06T16:00:00Z,28.9818,-94.9186,1030.3,11111222 
TABS,ioos:station:wmo:42043:1,2015-02-06T16:30:00Z,28.9818,-94.9186,1030.03,11111222 
TABS,ioos:station:wmo:42043:1,2015-02-06T17:00:00Z,28.9818,-94.9186,1029.98,11111222 
TABS,ioos:station:wmo:42043:1,2015-02-06T17:30:00Z,28.9818,-94.9186,1029.93,11111222 
TABS,ioos:station:wmo:42043:1,2015-02-06T18:00:00Z,28.9818,-94.9186,1029.62,11111222 
TABS,ioos:station:wmo:42043:1,2015-02-06T18:30:00Z,28.9818,-94.9186,1028.9,11111222 